CMP832 MPTO-TNCC

Flight info

Callsign CMP832
Flight time N/A
Altitude 37000
Route EGETA3A EGETA DCT BOGAL UL335 CTG DCT STA UL220 DATOR DATOR1B
Aircraft B738/M-SDE2E3FGHIRWXY/LB1

Departure

Time N/A
Airport Tocumen International Airport (MPTO)

Arrival

Time 2026-04-21 17:46
Airport Hato International Airport (TNCC)
Time Latitude Longitude Altitude Speed Heading
2026-04-21 17:18 11.99440 -71.51640 36994 ft 486 kts 71°
2026-04-21 17:18 12.01598 -71.45098 36995 ft 485 kts 71°
2026-04-21 17:19 12.03770 -71.38506 36995 ft 485 kts 71°
2026-04-21 17:19 12.05918 -71.31982 36995 ft 485 kts 70°
2026-04-21 17:20 12.08066 -71.25453 36995 ft 484 kts 70°
2026-04-21 17:20 12.10195 -71.18974 36996 ft 481 kts 70°
2026-04-21 17:21 12.12324 -71.12492 37000 ft 484 kts 72°
2026-04-21 17:21 12.14508 -71.05955 37004 ft 486 kts 71°
2026-04-21 17:22 12.16763 -70.99459 36889 ft 485 kts 71°
2026-04-21 17:22 12.17917 -70.96154 35954 ft 491 kts 71°
2026-04-21 17:22 12.19085 -70.92810 34796 ft 504 kts 71°
2026-04-21 17:23 12.20256 -70.89459 34411 ft 496 kts 71°
2026-04-21 17:23 12.21406 -70.86172 34236 ft 485 kts 71°
2026-04-21 17:23 12.22528 -70.82964 33970 ft 476 kts 71°
2026-04-21 17:23 12.23616 -70.79791 33622 ft 470 kts 72°
2026-04-21 17:24 12.24662 -70.76647 33243 ft 466 kts 72°
2026-04-21 17:24 12.25687 -70.73531 32836 ft 462 kts 72°
2026-04-21 17:24 12.26709 -70.70417 32409 ft 458 kts 72°
2026-04-21 17:24 12.27715 -70.67352 31991 ft 454 kts 72°
2026-04-21 17:25 12.28713 -70.64313 31677 ft 448 kts 72°
2026-04-21 17:25 12.29700 -70.61307 31386 ft 440 kts 72°
2026-04-21 17:25 12.30683 -70.58316 31022 ft 435 kts 72°
2026-04-21 17:25 12.31629 -70.55440 30599 ft 432 kts 71°
2026-04-21 17:26 12.32589 -70.52524 30145 ft 429 kts 71°
2026-04-21 17:26 12.33541 -70.49633 29697 ft 426 kts 71°
2026-04-21 17:26 12.34486 -70.46763 29235 ft 423 kts 71°
2026-04-21 17:26 12.35423 -70.43923 28760 ft 421 kts 70°
2026-04-21 17:27 12.36338 -70.41147 28289 ft 419 kts 70°
2026-04-21 17:27 12.37272 -70.38313 27801 ft 417 kts 70°
2026-04-21 17:27 12.38163 -70.35609 27325 ft 415 kts 70°
2026-04-21 17:27 12.39131 -70.32676 26842 ft 412 kts 70°
2026-04-21 17:28 12.40046 -70.29889 26292 ft 412 kts 71°
2026-04-21 17:28 12.40731 -70.27052 25832 ft 411 kts 78°
2026-04-21 17:28 12.41094 -70.24172 25386 ft 408 kts 84°
2026-04-21 17:28 12.41219 -70.21267 24877 ft 407 kts 88°
2026-04-21 17:29 12.41187 -70.18341 24414 ft 405 kts 90°
2026-04-21 17:29 12.41061 -70.15476 24005 ft 401 kts 92°
2026-04-21 17:29 12.40902 -70.12646 23574 ft 397 kts 92°
2026-04-21 17:29 12.40770 -70.10132 23182 ft 394 kts 92°
2026-04-21 17:30 12.40643 -70.07242 22688 ft 392 kts 92°
2026-04-21 17:30 12.40548 -70.04492 22336 ft 386 kts 91°
2026-04-21 17:30 12.40466 -70.01809 22002 ft 380 kts 91°
2026-04-21 17:30 12.40392 -69.99103 21471 ft 379 kts 91°
2026-04-21 17:31 12.40323 -69.96378 20946 ft 378 kts 90°
2026-04-21 17:31 12.40259 -69.93728 20540 ft 374 kts 91°
2026-04-21 17:31 12.40196 -69.91053 20080 ft 371 kts 91°
2026-04-21 17:31 12.40136 -69.88392 19605 ft 368 kts 91°
2026-04-21 17:32 12.40096 -69.86603 19300 ft 365 kts 91°
2026-04-21 17:32 12.40038 -69.83984 18843 ft 362 kts 91°
2026-04-21 17:32 12.39982 -69.81449 18612 ft 352 kts 91°
2026-04-21 17:32 12.39929 -69.79013 18452 ft 339 kts 91°
2026-04-21 17:33 12.39876 -69.76615 18286 ft 327 kts 91°
2026-04-21 17:33 12.39826 -69.74360 18119 ft 315 kts 91°
2026-04-21 17:33 12.39777 -69.72165 17949 ft 303 kts 91°
2026-04-21 17:33 12.39728 -69.70018 17776 ft 292 kts 91°
2026-04-21 17:34 12.39682 -69.67973 17520 ft 286 kts 91°
2026-04-21 17:34 12.39636 -69.65957 17198 ft 282 kts 91°
2026-04-21 17:34 12.39590 -69.63959 16838 ft 280 kts 91°
2026-04-21 17:34 12.39545 -69.61953 16497 ft 277 kts 91°
2026-04-21 17:35 12.39298 -69.60008 16148 ft 274 kts 103°
2026-04-21 17:35 12.38788 -69.58145 15852 ft 270 kts 108°
2026-04-21 17:35 12.38171 -69.56342 15512 ft 268 kts 110°
2026-04-21 17:35 12.37507 -69.54568 15178 ft 266 kts 111°
2026-04-21 17:36 12.36840 -69.52810 14848 ft 264 kts 111°
2026-04-21 17:36 12.36176 -69.51057 14440 ft 266 kts 113°
2026-04-21 17:36 12.35506 -69.49282 14056 ft 267 kts 113°
2026-04-21 17:36 12.34846 -69.47521 13750 ft 265 kts 113°
2026-04-21 17:37 12.34194 -69.45774 13434 ft 263 kts 113°
2026-04-21 17:37 12.33535 -69.44002 13109 ft 262 kts 112°
2026-04-21 17:37 12.32901 -69.42287 12802 ft 260 kts 112°
2026-04-21 17:37 12.32257 -69.40543 12489 ft 258 kts 112°
2026-04-21 17:38 12.31628 -69.38833 12184 ft 257 kts 112°
2026-04-21 17:38 12.31000 -69.37123 11901 ft 255 kts 114°
2026-04-21 17:38 12.30394 -69.35463 11827 ft 242 kts 114°
2026-04-21 17:38 12.29816 -69.33869 11585 ft 238 kts 114°
2026-04-21 17:39 12.29231 -69.32267 11107 ft 244 kts 114°
2026-04-21 17:39 12.28613 -69.30581 10609 ft 250 kts 114°
2026-04-21 17:39 12.27980 -69.28859 10173 ft 246 kts 114°
2026-04-21 17:39 12.27377 -69.27213 9655 ft 241 kts 114°
2026-04-21 17:40 12.26812 -69.25665 9102 ft 231 kts 114°
2026-04-21 17:40 12.26261 -69.24148 8589 ft 221 kts 114°
2026-04-21 17:40 12.25733 -69.22691 8097 ft 210 kts 114°
2026-04-21 17:40 12.25232 -69.21312 7588 ft 203 kts 114°
2026-04-21 17:41 12.24742 -69.19966 7079 ft 198 kts 115°
2026-04-21 17:41 12.24233 -69.18702 6599 ft 188 kts 119°
2026-04-21 17:41 12.23679 -69.17484 6089 ft 188 kts 116°
2026-04-21 17:41 12.23193 -69.16222 5590 ft 187 kts 112°
2026-04-21 17:42 12.22839 -69.14997 5155 ft 172 kts 103°
2026-04-21 17:42 12.22600 -69.13848 4648 ft 162 kts 101°
2026-04-21 17:42 12.22379 -69.12733 4143 ft 157 kts 100°
2026-04-21 17:42 12.22163 -69.11650 3914 ft 156 kts 100°
2026-04-21 17:43 12.21944 -69.10565 3713 ft 156 kts 100°
2026-04-21 17:43 12.21721 -69.09481 3461 ft 155 kts 100°
2026-04-21 17:43 12.21496 -69.08406 3201 ft 155 kts 100°
2026-04-21 17:43 12.21274 -69.07334 2934 ft 154 kts 100°
2026-04-21 17:44 12.21054 -69.06259 2692 ft 153 kts 100°
2026-04-21 17:44 12.20860 -69.05204 2469 ft 151 kts 99°
2026-04-21 17:44 12.20669 -69.04129 2137 ft 156 kts 99°
2026-04-21 17:44 12.20424 -69.03041 1766 ft 160 kts 102°
2026-04-21 17:45 12.20152 -69.01948 1462 ft 154 kts 102°
2026-04-21 17:45 12.19904 -69.00888 1094 ft 152 kts 101°
2026-04-21 17:45 12.19677 -68.99808 746 ft 153 kts 99°
2026-04-21 17:45 12.19481 -68.98759 460 ft 151 kts 99°
2026-04-21 17:46 12.19264 -68.97720 236 ft 146 kts 100°
2026-04-21 17:46 12.19058 -68.96734 88 ft 136 kts 99°
2026-04-21 17:46 12.18930 -68.96131 43 ft 124 kts 99°
2026-04-21 17:46 12.18799 -68.95524 40 ft 41 kts 101°
2026-04-21 17:47 12.18766 -68.95391 40 ft 6 kts 135°
2026-04-21 17:47 12.18749 -68.95384 40 ft 6 kts 171°
2026-04-21 17:47 12.18670 -68.95401 40 ft 13 kts 198°
2026-04-21 17:47 12.18616 -68.95443 40 ft 11 kts 245°
2026-04-21 17:48 12.18614 -68.95521 40 ft 10 kts 281°
2026-04-21 17:48 12.18631 -68.95599 40 ft 10 kts 284°
2026-04-21 17:48 12.18633 -68.95641 40 ft 5 kts 244°
2026-04-21 17:48 12.18609 -68.95658 40 ft 5 kts 198°
2026-04-21 17:49 12.18573 -68.95667 40 ft 4 kts 192°
2026-04-21 17:49 12.18553 -68.95672 40 ft 0 kts 192°
2026-04-21 17:49 12.18552 -68.95672 40 ft 0 kts 192°